SCP
-0 -0 0 -0 -0 -0 -0 -0 -0 -0 -0 -0 -0 0 0 -0 -0 -0 -0 0 0 0 0 0 0 0 0 0 -0 -0 -0 -0 -0 -0 -0 0 0 0 0 0 0 0 0
-0 -0 0 0 -0 -0 -0 -0 -0 -0 -0 0 0 0 -0 -0 0 -0 -0 -0 0 0 -0 0 0 0 0 0 0 0 -0 -0 -0 0 -0 0 0 0 0 0 0 0 0
-0 -0 -0 0 -0 -0 -0 -0 -0 -0 -0 0 0 0 0 0 0 0 -0 0 0 0 0 0 0 0 0 0 0 0 -0 0 -0 0 0 0 0 0 0 0 0 0 0
-0 -0 -0 -0 -0 -0 -0 -0 0 0 0 -0 -0 0 0 0 0 0 -0 -0 0 0 0 0 0 0 0 0 0 0 0 0 0 -0 0 0 0 0 0 0 0 0 0
-0 -0 -0 -0 0 0 0 0 0 0 0 -0 -0 -0 -0 -0 0 0 -0 0 0 0 0 0 0 0 0 0 0 0 0 0 0 -0 0 0 0 0 0 0 0 0 0
-0 -0 -0 -0 -0 0 0 0 0 0 -0 -0 -0 -0 -0 -0 -0 -0 -0 0 0 0 0 0 0 0 0 0 0 0 -0 0 0 0 0 0 0 0 0 0 0 0 0
0 -0 -0 -0 -0 -0 0 0 0 -0 -0 -0 -0 -0 -0 -0 -0 -0 0 0 0 0 0 0 0 0 -0 -0 -0 -0 -0 -0 -0 -0 0 0 0 0 0 0 0 0 0
0 0 -0 0 -0 -0 0 0 0 -0 -0 -0 -0 -0 -0 -0 -0 -0 0 0 0 0 0 0 -0 0 0 -0 -0 -0 0 -0 -0 -0 0 -0 0 0 0 0 0 0 -0
0 0 -0 -0 0 -0 0 0 0 0 0 -0 0 -0 -0 -0 -0 -0 0 0 0 0 0 0 -0 0 0 0 0 0 0 0 0 0 -0 0 0 0 0 0 0 0 -0
0 0 0 0 0 0 0 0 0 0 0 0 0 0 -0 -0 -0 -0 -0 0 0 0 -0 -0 -0 0 0 0 0 0 0 0 0 0 0 0 0 0 0 0 0 0 0
0 0 0 0 0 0 0 0 0 0 0 0 0 0 0 -0 -0 -0 0 0 0 0 -0 -0 0 0 0 0 0 0 0 0 0 0 0 -0 0 -0 -0 0 0 0 0
0 0 0 0 0 0 0 0 0 0 0 0 1 0 0 0 -0 -0 0 0 0 0 -0 -0 -0 -0 -0 0 0 0 0 0 0 0 0 0 -0 0 0 0 -0 -0 -0
0 0 0 0 0 0 1 0 0 0 0 1 0 0 0 0 0 0 0 0 0 0 0 -0 -0 -0 0 0 0 0 0 0 0 0 0 0 0 0 0 0 0 0 0
-0 0 0 1 1 1 0 1 1 0 0 0 0 1 0 0 0 1 1 0 1 0 0 0 0 -0 -0 -0 0 0 0 0 0 0 0 0 0 0 0 0 0 0 0
0 0 0 1 1 1 1 1 1 1 1 1 1 0 1 1 1 1 1 1 1 1 0 0 0 -0 -0 -0 0 -0 -0 0 0 -0 0 0 0 0 0 0 0 0 0
0 0 0 0 1 1 1 0 0 1 1 1 1 1 1 1 1 1 1 1 1 1 0 0 0 0 -0 -0 0 -0 0 0 0 -0 -0 -0 0 0 0 -0 -0 0 0
0 0 0 0 1 1 1 1 0 1 1 1 1 1 1 1 1 1 1 1 1 1 0 0 0 -0 0 -0 0 -0 -0 0 0 0 -0 -0 -0 0 0 0 -0 -0 -0
0 0 1 0 0 0 0 1 0 1 1 1 1 2 1 1 1 1 1 1 1 1 0 0 0 0 0 0 0 -0 0 0 0 0 -0 -0 0 0 0 0 0 -0 -0
0 0 1 0 0 1 1 1 1 1 1 1 1 1 1 1 1 1 1 1 1 1 0 0 0 0 0 0 -0 0 0 0 0 0 0 -0 -0 -0 0 -0 -0 -0 -0
0 1 1 0 1 2 1 1 1 1 0 0 1 1 1 1 1 1 1 1 1 1 0 0 0 0 0 0 -0 -0 0 0 0 -0 -0 0 -0 0 0 0 0 -0 -0
0 1 1 1 1 1 1 1 1 0 0 0 0 1 1 1 1 1 1 1 0 0 0 0 0 0 0 -0 -0 -0 -0 0 -0 0 0 0 -0 -0 0 0 0 0 0
0 1 1 2 1 1 2 2 1 1 1 0 1 1 2 1 1 1 1 0 0 0 0 0 0 -0 -0 0 0 0 -0 0 0 0 -0 0 0 0 0 0 0 0 0
0 1 1 2 3 2 1 2 2 1 1 1 1 1 1 1 1 0 0 0 0 0 0 0 0 1 1 1 0 0 0 0 0 0 1 1 1 1 0 0 0 0 0
0 2 2 2 3 4 3 4 4 2 1 1 1 1 0 0 0 0 1 1 1 1 1 1 1 1 1 1 1 1 0 0 0 0 1 1 1 1 2 2 0 0 0
0 1 2 3 4 4 3 3 4 5 3 2 2 1 1 1 1 1 2 2 2 1 1 1 1 1 1 1 1 1 2 2 1 1 2 2 3 2 3 2 2 2 1
0 0 0 1 2 2 1 2 2 3 5 4 4 4 3 2 2 1 1 0 0 0 0 1 2 2 2 3 2 2 2 2 1 3 4 4 3 3 3 3 2 1 0
Wind_Speed_500mb
66 63 60 61 61 70 70 68 65 60 58 57 56 51 46 35 30 28 25 19 14 17 16 12 16 16 16 17 17 14 8 11 16 13 7 7 5 4 1 3 6 7 8
67 66 64 65 66 73 74 70 70 66 62 61 60 58 49 39 33 30 27 25 19 14 16 11 13 14 12 12 14 13 9 13 15 13 7 4 2 4 8 3 3 4 5
73 72 72 70 68 74 81 76 71 70 67 65 64 59 50 42 37 33 28 26 24 19 14 12 10 13 10 11 9 14 16 14 15 16 11 4 5 5 9 9 6 7 5
69 72 76 76 75 76 84 80 73 70 70 68 71 65 60 53 45 39 30 25 22 23 19 16 13 11 12 13 10 7 15 20 15 15 20 16 11 4 3 11 12 9 6
73 78 80 77 72 70 85 82 79 75 70 74 72 69 63 56 50 42 37 35 29 23 22 22 19 12 15 14 10 9 14 17 17 18 18 14 14 8 5 2 5 6 8
73 74 72 70 74 68 80 85 82 78 72 75 74 71 67 58 53 50 47 43 40 36 30 26 24 20 16 17 14 14 13 18 17 21 20 14 10 12 13 10 10 10 9
74 75 74 76 79 83 81 91 89 85 80 79 79 75 70 63 57 52 49 51 51 49 43 35 29 27 22 19 21 19 19 17 20 22 24 21 19 17 15 14 14 15 17
68 73 76 77 88 92 96 97 94 94 89 87 85 80 75 72 68 64 58 51 52 55 51 43 39 35 28 23 23 22 22 22 24 25 25 24 27 24 24 22 17 15 16
70 77 78 83 85 93 99 100 96 95 96 94 90 87 82 76 71 69 62 55 48 45 49 47 41 39 35 30 25 26 24 25 24 23 28 26 26 26 24 25 24 17 18
62 67 75 84 94 93 96 97 94 91 95 95 95 90 87 82 71 66 66 61 51 40 40 41 42 40 39 36 33 29 28 29 29 29 29 28 27 27 27 27 25 26 26
64 69 76 85 96 91 97 100 98 93 91 90 91 92 90 86 79 72 64 62 57 47 43 44 48 47 45 42 39 37 34 33 33 33 34 30 27 28 32 34 36 36 37
65 69 73 70 73 90 94 105 104 101 94 91 88 87 87 86 84 78 70 63 62 57 49 49 53 51 51 48 46 42 41 42 38 37 38 37 36 34 34 37 41 42 44
45 50 54 70 75 83 95 94 102 104 101 97 94 89 89 88 87 80 75 69 65 63 57 58 57 59 59 54 52 48 46 45 42 39 40 38 37 39 39 42 47 48 49
43 50 53 68 80 83 93 99 99 91 94 98 99 97 95 89 85 80 76 70 67 66 65 62 62 61 61 60 58 56 54 52 49 47 47 46 45 46 44 46 49 51 56
24 40 56 73 82 87 88 93 94 95 90 91 92 91 87 84 82 80 74 66 65 65 67 65 65 65 65 64 64 63 61 60 58 56 54 54 52 51 50 51 54 53 54
28 31 46 60 76 83 95 96 96 98 94 93 87 82 80 80 82 80 78 72 66 66 67 72 71 69 70 68 67 65 65 65 64 63 60 58 56 53 52 52 54 57 62
37 37 43 59 78 85 88 99 96 98 99 91 83 79 79 80 78 76 78 77 71 68 70 72 74 75 73 73 71 67 70 71 70 69 67 66 65 61 61 61 62 65 67
43 47 48 54 71 78 79 84 85 97 101 92 82 79 78 76 74 75 76 74 73 73 72 72 74 76 77 74 72 72 73 77 79 77 75 74 73 72 69 69 74 78 80
43 48 47 54 60 74 83 88 87 91 92 87 82 77 72 67 68 71 70 69 69 71 72 71 74 76 75 73 70 71 78 84 85 83 82 81 81 79 78 81 84 86 88
35 34 28 39 55 71 80 87 81 85 85 81 82 78 75 70 69 63 60 59 62 63 64 69 71 71 69 65 63 65 71 80 82 82 84 83 84 81 81 81 82 87 83
28 13 24 46 59 71 74 71 75 76 72 74 79 75 68 64 62 61 63 65 67 67 68 69 69 69 67 66 64 64 69 73 74 75 75 75 73 64 61 61 63 67 57
42 27 22 43 49 52 54 62 66 66 65 66 66 63 62 59 61 65 66 65 65 65 67 65 66 65 62 57 55 55 61 59 63 64 60 59 54 46 43 46 49 47 50
61 49 33 35 40 46 49 49 51 54 52 54 54 54 53 54 58 58 59 58 59 60 59 60 61 56 52 50 49 50 53 54 60 61 60 54 48 43 43 42 40 43 46
67 54 56 54 44 27 22 25 30 37 43 50 52 50 50 53 56 56 55 57 58 60 58 57 55 49 50 49 46 47 50 51 55 57 55 50 48 43 44 45 45 46 52
74 68 63 59 55 47 42 34 23 21 36 41 44 48 50 51 50 50 50 56 56 54 54 54 49 48 47 43 32 35 40 43 45 41 47 47 46 49 54 54 52 50 47
58 65 65 55 46 42 39 35 28 24 22 21 28 31 35 43 37 41 54 52 49 48 49 48 48 43 40 38 36 40 40 38 40 45 50 46 47 51 48 46 44 38 38
Wind_Direction_500mb
198 199 200 202 203 206 203 201 197 193 194 194 192 195 196 195 192 195 193 190 177 183 180 176 179 174 166 160 167 171 164 178 147 146 152 162 217 191 105 39 41 38 46
198 202 202 205 207 208 207 206 203 198 199 199 200 199 199 200 197 200 206 203 198 182 184 182 182 182 181 169 185 192 186 190 174 171 167 170 210 259 238 238 279 329 15
198 203 205 206 206 209 210 209 206 204 202 202 204 207 207 208 202 198 204 210 205 203 197 198 198 207 201 207 215 212 216 200 197 204 195 222 237 275 227 237 280 277 291
205 205 206 207 208 211 213 211 209 209 207 207 208 212 213 212 211 208 208 214 213 214 215 223 224 224 224 221 215 216 202 208 222 229 222 244 261 249 211 245 254 257 251
206 207 208 208 208 209 214 214 212 212 214 211 213 215 218 222 222 220 219 226 230 228 227 228 229 247 229 221 222 227 215 212 225 215 215 233 241 270 267 351 285 294 273
209 210 209 207 209 209 215 215 213 212 213 214 214 215 219 221 223 223 226 230 234 236 239 238 234 231 238 234 233 243 241 227 223 210 218 239 252 279 270 286 322 311 270
207 207 205 206 208 209 215 219 216 215 213 214 217 218 222 226 230 231 232 233 237 239 240 242 241 239 238 238 232 242 242 230 225 223 231 247 261 271 286 294 281 295 298
210 209 207 206 209 213 219 224 221 218 217 218 220 223 227 230 233 237 238 239 241 244 246 248 250 243 238 238 235 241 239 236 232 233 239 254 254 258 266 276 283 297 296
209 207 206 207 210 216 220 225 225 223 221 222 223 225 226 229 234 236 236 241 244 248 243 246 242 233 231 233 236 240 240 241 239 239 243 254 252 255 260 267 269 269 291
211 210 208 208 215 220 223 224 225 225 224 222 224 225 227 229 231 236 236 236 241 244 240 233 231 229 225 229 236 242 242 244 243 242 246 249 251 252 256 262 265 264 271
211 209 211 212 216 216 218 223 222 222 221 222 225 227 228 229 231 234 235 235 237 240 239 233 233 232 228 227 234 241 247 249 248 248 249 249 250 252 255 260 264 267 272
217 213 213 210 209 211 213 220 223 220 221 221 222 225 228 232 235 235 236 237 236 237 240 237 233 233 230 230 234 239 245 249 249 250 253 254 256 256 257 262 267 271 275
228 221 210 208 208 210 213 215 221 222 221 222 223 224 228 231 233 234 236 238 237 236 238 238 234 233 233 232 234 236 242 244 244 247 253 256 259 262 263 267 269 273 276
227 215 211 210 209 213 214 216 221 218 220 222 224 226 227 229 233 235 237 237 238 237 235 239 237 235 236 237 236 236 237 238 243 245 249 254 258 261 263 266 270 272 273
224 215 218 221 219 211 219 216 217 223 218 222 223 225 228 230 232 234 234 231 231 235 236 238 240 237 237 237 237 236 237 240 242 243 245 250 252 257 261 264 268 272 276
276 247 231 226 222 221 217 221 219 223 222 221 221 224 226 227 228 230 231 231 229 231 235 236 238 239 238 237 237 237 239 242 243 244 246 248 251 251 254 258 261 268 275
288 274 253 233 231 229 227 220 221 219 221 221 219 220 224 226 227 228 230 231 231 233 234 236 238 239 239 239 238 238 241 245 246 248 249 251 254 255 258 261 263 265 267
291 279 265 245 231 226 213 213 208 216 218 219 218 220 223 224 225 226 228 230 232 235 235 236 238 240 241 240 240 239 242 246 249 250 252 255 257 259 261 264 269 272 274
292 278 257 233 227 206 201 209 209 214 216 218 217 219 220 220 222 225 227 229 232 234 236 237 238 240 241 242 241 241 243 246 248 251 253 256 259 261 264 267 271 275 278
312 290 234 204 200 194 190 204 207 211 216 217 218 218 218 217 221 223 225 229 233 237 240 241 241 241 242 242 241 242 244 248 250 253 256 258 260 263 266 269 273 274 277
359 354 176 192 199 190 189 205 210 217 218 215 219 220 219 220 218 218 221 224 227 231 234 237 241 244 244 243 242 241 242 245 250 252 256 259 262 265 266 266 267 270 281
37 54 134 164 179 193 200 206 214 218 218 219 222 222 222 222 223 224 227 229 232 235 238 240 242 242 241 237 234 232 236 241 247 251 256 259 264 266 262 261 265 269 271
49 48 78 134 151 177 192 200 210 217 216 216 214 216 219 220 222 222 223 225 228 230 232 233 235 236 237 234 230 231 235 239 245 250 255 260 263 260 256 258 263 264 265
53 49 60 75 95 123 162 198 210 220 220 215 211 211 213 214 217 221 222 224 224 224 223 227 230 233 237 239 237 235 234 236 240 245 250 251 250 246 252 259 263 267 268
51 55 59 66 71 89 102 112 128 184 205 208 209 208 213 215 216 218 219 222 224 226 228 230 227 227 231 235 240 240 236 237 242 243 244 243 245 253 260 264 267 269 271
35 44 48 57 60 70 78 84 92 110 127 164 195 209 216 222 217 227 225 220 223 230 230 232 239 237 235 237 229 226 228 231 230 231 237 240 247 254 257 257 261 263 266
Wind_Speed_850mb
66 63 60 61 61 70 70 68 65 60 58 57 56 51 46 35 30 28 25 19 14 17 16 12 16 16 16 17 17 14 8 11 16 13 7 7 5 4 1 3 6 7 8
67 66 64 65 66 73 74 70 70 66 62 61 60 58 49 39 33 30 27 25 19 14 16 11 13 14 12 12 14 13 9 13 15 13 7 4 2 4 8 3 3 4 5
73 72 72 70 68 74 81 76 71 70 67 65 64 59 50 42 37 33 28 26 24 19 14 12 10 13 10 11 9 14 16 14 15 16 11 4 5 5 9 9 6 7 5
69 72 76 76 75 76 84 80 73 70 70 68 71 65 60 53 45 39 30 25 22 23 19 16 13 11 12 13 10 7 15 20 15 15 20 16 11 4 3 11 12 9 6
73 78 80 77 72 70 85 82 79 75 70 74 72 69 63 56 50 42 37 35 29 23 22 22 19 12 15 14 10 9 14 17 17 18 18 14 14 8 5 2 5 6 8
73 74 72 70 74 68 80 85 82 78 72 75 74 71 67 58 53 50 47 43 40 36 30 26 24 20 16 17 14 14 13 18 17 21 20 14 10 12 13 10 10 10 9
74 75 74 76 79 83 81 91 89 85 80 79 79 75 70 63 57 52 49 51 51 49 43 35 29 27 22 19 21 19 19 17 20 22 24 21 19 17 15 14 14 15 17
68 73 76 77 88 92 96 97 94 94 89 87 85 80 75 72 68 64 58 51 52 55 51 43 39 35 28 23 23 22 22 22 24 25 25 24 27 24 24 22 17 15 16
70 77 78 83 85 93 99 100 96 95 96 94 90 87 82 76 71 69 62 55 48 45 49 47 41 39 35 30 25 26 24 25 24 23 28 26 26 26 24 25 24 17 18
62 67 75 84 94 93 96 97 94 91 95 95 95 90 87 82 71 66 66 61 51 40 40 41 42 40 39 36 33 29 28 29 29 29 29 28 27 27 27 27 25 26 26
64 69 76 85 96 91 97 100 98 93 91 90 91 92 90 86 79 72 64 62 57 47 43 44 48 47 45 42 39 37 34 33 33 33 34 30 27 28 32 34 36 36 37
65 69 73 70 73 90 94 105 104 101 94 91 88 87 87 86 84 78 70 63 62 57 49 49 53 51 51 48 46 42 41 42 38 37 38 37 36 34 34 37 41 42 44
45 50 54 70 75 83 95 94 102 104 101 97 94 89 89 88 87 80 75 69 65 63 57 58 57 59 59 54 52 48 46 45 42 39 40 38 37 39 39 42 47 48 49
43 50 53 68 80 83 93 99 99 91 94 98 99 97 95 89 85 80 76 70 67 66 65 62 62 61 61 60 58 56 54 52 49 47 47 46 45 46 44 46 49 51 56
24 40 56 73 82 87 88 93 94 95 90 91 92 91 87 84 82 80 74 66 65 65 67 65 65 65 65 64 64 63 61 60 58 56 54 54 52 51 50 51 54 53 54
28 31 46 60 76 83 95 96 96 98 94 93 87 82 80 80 82 80 78 72 66 66 67 72 71 69 70 68 67 65 65 65 64 63 60 58 56 53 52 52 54 57 62
37 37 43 59 78 85 88 99 96 98 99 91 83 79 79 80 78 76 78 77 71 68 70 72 74 75 73 73 71 67 70 71 70 69 67 66 65 61 61 61 62 65 67
43 47 48 54 71 78 79 84 85 97 101 92 82 79 78 76 74 75 76 74 73 73 72 72 74 76 77 74 72 72 73 77 79 77 75 74 73 72 69 69 74 78 80
43 48 47 54 60 74 83 88 87 91 92 87 82 77 72 67 68 71 70 69 69 71 72 71 74 76 75 73 70 71 78 84 85 83 82 81 81 79 78 81 84 86 88
35 34 28 39 55 71 80 87 81 85 85 81 82 78 75 70 69 63 60 59 62 63 64 69 71 71 69 65 63 65 71 80 82 82 84 83 84 81 81 81 82 87 83
28 13 24 46 59 71 74 71 75 76 72 74 79 75 68 64 62 61 63 65 67 67 68 69 69 69 67 66 64 64 69 73 74 75 75 75 73 64 61 61 63 67 57
42 27 22 43 49 52 54 62 66 66 65 66 66 63 62 59 61 65 66 65 65 65 67 65 66 65 62 57 55 55 61 59 63 64 60 59 54 46 43 46 49 47 50
61 49 33 35 40 46 49 49 51 54 52 54 54 54 53 54 58 58 59 58 59 60 59 60 61 56 52 50 49 50 53 54 60 61 60 54 48 43 43 42 40 43 46
67 54 56 54 44 27 22 25 30 37 43 50 52 50 50 53 56 56 55 57 58 60 58 57 55 49 50 49 46 47 50 51 55 57 55 50 48 43 44 45 45 46 52
74 68 63 59 55 47 42 34 23 21 36 41 44 48 50 51 50 50 50 56 56 54 54 54 49 48 47 43 32 35 40 43 45 41 47 47 46 49 54 54 52 50 47
58 65 65 55 46 42 39 35 28 24 22 21 28 31 35 43 37 41 54 52 49 48 49 48 48 43 40 38 36 40 40 38 40 45 50 46 47 51 48 46 44 38 38
Wind_Direction_850mb
198 199 200 202 203 206 203 201 197 193 194 194 192 195 196 195 192 195 193 190 177 183 180 176 179 174 166 160 167 171 164 178 147 146 152 162 217 191 105 39 41 38 46
198 202 202 205 207 208 207 206 203 198 199 199 200 199 199 200 197 200 206 203 198 182 184 182 182 182 181 169 185 192 186 190 174 171 167 170 210 259 238 238 279 329 15
198 203 205 206 206 209 210 209 206 204 202 202 204 207 207 208 202 198 204 210 205 203 197 198 198 207 201 207 215 212 216 200 197 204 195 222 237 275 227 237 280 277 291
205 205 206 207 208 211 213 211 209 209 207 207 208 212 213 212 211 208 208 214 213 214 215 223 224 224 224 221 215 216 202 208 222 229 222 244 261 249 211 245 254 257 251
206 207 208 208 208 209 214 214 212 212 214 211 213 215 218 222 222 220 219 226 230 228 227 228 229 247 229 221 222 227 215 212 225 215 215 233 241 270 267 351 285 294 273
209 210 209 207 209 209 215 215 213 212 213 214 214 215 219 221 223 223 226 230 234 236 239 238 234 231 238 234 233 243 241 227 223 210 218 239 252 279 270 286 322 311 270
207 207 205 206 208 209 215 219 216 215 213 214 217 218 222 226 230 231 232 233 237 239 240 242 241 239 238 238 232 242 242 230 225 223 231 247 261 271 286 294 281 295 298
210 209 207 206 209 213 219 224 221 218 217 218 220 223 227 230 233 237 238 239 241 244 246 248 250 243 238 238 235 241 239 236 232 233 239 254 254 258 266 276 283 297 296
209 207 206 207 210 216 220 225 225 223 221 222 223 225 226 229 234 236 236 241 244 248 243 246 242 233 231 233 236 240 240 241 239 239 243 254 252 255 260 267 269 269 291
211 210 208 208 215 220 223 224 225 225 224 222 224 225 227 229 231 236 236 236 241 244 240 233 231 229 225 229 236 242 242 244 243 242 246 249 251 252 256 262 265 264 271
211 209 211 212 216 216 218 223 222 222 221 222 225 227 228 229 231 234 235 235 237 240 239 233 233 232 228 227 234 241 247 249 248 248 249 249 250 252 255 260 264 267 272
217 213 213 210 209 211 213 220 223 220 221 221 222 225 228 232 235 235 236 237 236 237 240 237 233 233 230 230 234 239 245 249 249 250 253 254 256 256 257 262 267 271 275
228 221 210 208 208 210 213 215 221 222 221 222 223 224 228 231 233 234 236 238 237 236 238 238 234 233 233 232 234 236 242 244 244 247 253 256 259 262 263 267 269 273 276
227 215 211 210 209 213 214 216 221 218 220 222 224 226 227 229 233 235 237 237 238 237 235 239 237 235 236 237 236 236 237 238 243 245 249 254 258 261 263 266 270 272 273
224 215 218 221 219 211 219 216 217 223 218 222 223 225 228 230 232 234 234 231 231 235 236 238 240 237 237 237 237 236 237 240 242 243 245 250 252 257 261 264 268 272 276
276 247 231 226 222 221 217 221 219 223 222 221 221 224 226 227 228 230 231 231 229 231 235 236 238 239 238 237 237 237 239 242 243 244 246 248 251 251 254 258 261 268 275
288 274 253 233 231 229 227 220 221 219 221 221 219 220 224 226 227 228 230 231 231 233 234 236 238 239 239 239 238 238 241 245 246 248 249 251 254 255 258 261 263 265 267
291 279 265 245 231 226 213 213 208 216 218 219 218 220 223 224 225 226 228 230 232 235 235 236 238 240 241 240 240 239 242 246 249 250 252 255 257 259 261 264 269 272 274
292 278 257 233 227 206 201 209 209 214 216 218 217 219 220 220 222 225 227 229 232 234 236 237 238 240 241 242 241 241 243 246 248 251 253 256 259 261 264 267 271 275 278
312 290 234 204 200 194 190 204 207 211 216 217 218 218 218 217 221 223 225 229 233 237 240 241 241 241 242 242 241 242 244 248 250 253 256 258 260 263 266 269 273 274 277
359 354 176 192 199 190 189 205 210 217 218 215 219 220 219 220 218 218 221 224 227 231 234 237 241 244 244 243 242 241 242 245 250 252 256 259 262 265 266 266 267 270 281
37 54 134 164 179 193 200 206 214 218 218 219 222 222 222 222 223 224 227 229 232 235 238 240 242 242 241 237 234 232 236 241 247 251 256 259 264 266 262 261 265 269 271
49 48 78 134 151 177 192 200 210 217 216 216 214 216 219 220 222 222 223 225 228 230 232 233 235 236 237 234 230 231 235 239 245 250 255 260 263 260 256 258 263 264 265
53 49 60 75 95 123 162 198 210 220 220 215 211 211 213 214 217 221 222 224 224 224 223 227 230 233 237 239 237 235 234 236 240 245 250 251 250 246 252 259 263 267 268
51 55 59 66 71 89 102 112 128 184 205 208 209 208 213 215 216 218 219 222 224 226 228 230 227 227 231 235 240 240 236 237 242 243 244 243 245 253 260 264 267 269 271
35 44 48 57 60 70 78 84 92 110 127 164 195 209 216 222 217 227 225 220 223 230 230 232 239 237 235 237 229 226 228 231 230 231 237 240 247 254 257 257 261 263 266